Regional Weather Roundup
Issued by NWS Cleveland, OH

Home | Current Version | Previous Version | Graphics & Text | Print | Product List | Glossary On
Versions: 1 2 3 4 5 6 7 8 9 10 11 12 13 14 15 16 17 18 19 20 21 22 23 24 25 26 27 28 29 30 31 32 33 34 35 36 37 38 39 40 41 42 43 44 45 46 47 48 49 50
000
ASUS41 KCLE 260102
RWRCLE
OHIO REGIONAL WEATHER ROUNDUP
NATIONAL WEATHER SERVICE CLEVELAND, OH
900 PM EDT THU MAY 25 2017

NOTE: "FAIR" INDICATES FEW OR NO CLOUDS BELOW 12,000 FEET WITH NO
SIGNIFICANT WEATHER AND/OR OBSTRUCTIONS TO VISIBILITY.

OHZ001>008-015>018-024>027-034-035-043-044-260200-
   NORTHWEST OHIO

CITY           SKY/WX    TMP DP  RH WIND       PRES   REMARKS
DEFIANCE       CLOUDY    61  56  83 W9        29.61R
FINDLAY        CLOUDY    63  55  75 NW10      29.59R
TOLEDO EXPRESS CLOUDY    61  56  83 W10       29.58R
TOLEDO EXEC    CLOUDY    63  57  81 NW10      29.58R
LIMA           CLOUDY    61  58  90 W13       29.62R
$$

OHZ009>014-019>023-028>033-038-089-260200-
   NORTHEAST OHIO

CITY           SKY/WX    TMP DP  RH WIND       PRES   REMARKS
CLE-HOPKINS    LGT RAIN  59  56  89 W5        29.56R FOG
CLE-LAKEFRONT  LGT RAIN  58  56  93 S5        29.53R FOG
CUY CO. ARPT   CLOUDY    57  55  94 S8        29.54R
LORAIN-ELYRIA  LGT RAIN  59  54  83 NW10      29.55R
ASHTABULA      LGT RAIN  58  57  97 W7        29.54R
AKRON-CANTON   LGT RAIN  59  56  89 W5        29.55R FOG
WOOSTER        LGT RAIN  59  58  96 SW6       29.55R FOG
MANSFIELD      LGT RAIN  59  58  96 NW13      29.57R
YOUNGSTOWN     CLOUDY    58  56  93 W6        29.54R
$$

OHZ042-051>053-060>062-070>072-077>081-260200-
  SOUTHWEST OHIO

CITY           SKY/WX    TMP DP  RH WIND       PRES   REMARKS
CINC-COVINGTON CLOUDY    62  56  80 W14       29.70R
CINC-LUNKEN    CLOUDY    64  57  78 W12       29.70R
HAMILTON       CLOUDY    63  57  81 W9        29.70R
DAYTON         CLOUDY    60  56  86 W15       29.67R
WRIGHT-PAT AFB CLOUDY    61  60  98 W12       29.65R
DAYTON GENERAL CLOUDY    61  55  81 W13G22    29.67R
WILMINGTON     CLOUDY    60  58  92 W16       29.65R
$$

OHZ036-037-039>041-045>050-054>059-063>069-073>076-082>088-260200-
  CENTRAL AND SOUTHEAST OHIO

CITY           SKY/WX    TMP DP  RH WIND       PRES   REMARKS
COLUMBUS       CLOUDY    63  61  93 NW15      29.58R
OSU AIRPORT    CLOUDY    62  61  96 W9        29.59R
BOLTON FIELD   NOT AVBL
RICKENBACK AFB NOT AVBL
NEWARK         CLOUDY    62  59  90 W8        29.56R
MARION         LGT RAIN  61  58  90 NW15G23   29.59R FOG
LANCASTER      CLOUDY    64  59  83 W10G20    29.59R
ZANESVILLE     CLOUDY    62  58  86 S6        29.55R
NEW PHILLY     NOT AVBL
$$




USA.gov is the U.S. government's official web portal to all federal, state and local government web resources and services.